Regional Weather Roundup
Issued by NWS

Home | Current Version | Previous Version | Text Only | Print | Product List | Glossary Off
Versions: 1 2 3 4 5 6 7 8 9 10 11 12 13 14 15 16 17 18 19 20 21 22 23 24 25 26 27 28 29 30 31 32 33 34 35 36 37 38 39 40 41 42 43 44 45 46 47 48 49 50

000
ASUS43 KDMX 291507
RWRIA

WEATHER ROUNDUP FOR IOWA
NATIONAL WEATHER SERVICE DES MOINES IA
1000 AM CDT SUN MAR 29 2015

NOTE: "FAIR" INDICATES FEW OR NO CLOUDS BELOW 12,000 FEET WITH NO
SIGNIFICANT WEATHER AND/OR OBSTRUCTIONS TO VISIBILITY.

* - THESE STATIONS ARE NOT NWS STATIONS...THUS NOT UNDER NWS
QUALITY CONTROL.  THEY ALSO DO NOT REPORT WEATHER SUCH
AS PRECIPITATION OR FOG.

IAZ001>003-012>014-020>022-031>034-043>046-291600-
   NORTHWEST IOWA

CITY           SKY/WX    TMP DP  RH WIND       PRES   REMARKS
CARROLL *      SUNNY     48  39  71 SW21G29   29.83S
CHEROKEE *     SUNNY     54  39  58 W24G36    29.80R
DENISON *      SUNNY     48  39  71 W14       29.84R
LE MARS *      PTSUNNY   52  39  62 NW23G39   29.85R
ORANGE CITY *  PTSUNNY   54  39  58 NW38G44   29.80R
SHELDON *      MOSUNNY   52  39  62 NW28G40   29.77R
SIOUX CITY     LGT RAIN  55  36  48 NW32G53   29.84R
SPENCER        MOSUNNY   54  38  54 W31G37    29.75R
STORM LAKE *   SUNNY     52  39  62 W26G35    29.79S
$$

IAZ055>058-069>071-079>083-090>094-291600-
   SOUTHWEST IOWA

CITY           SKY/WX    TMP DP  RH WIND       PRES   REMARKS
ATLANTIC *     SUNNY     46  41  81 SW18      29.89R
AUDUBON *      SUNNY     45  39  81 SW13G18   29.87S
CLARINDA *     SUNNY     48  39  71 SW10G20   29.94F
COUNCIL BLFS * SUNNY     46  41  81 SW12      29.91R
CRESTON *      SUNNY     43  43 100 SW14      29.91S
HARLAN  *      SUNNY     48  45  87 SW16      29.92R
LAMONI         PTSUNNY   42  37  82 SW20G26   29.93S
RED OAK *      SUNNY     48  39  71 SW17      29.92R
SHENANDOAH *   SUNNY     50  41  71 SW17      29.94S
$$

IAZ047>049-059>061-072>074-084-291600-
   CENTRAL IOWA

CITY           SKY/WX    TMP DP  RH WIND       PRES   REMARKS
AMES           CLOUDY    45  38  76 SW25G31   29.82F
ANKENY *       PTSUNNY   45  39  81 SW15G23   29.86S
CHARITON *     MOSUNNY   41  37  87 SW16G28   29.91F
DES MOINES     CLOUDY    45  38  76 SW15G25   29.87F
GRINNELL*      CLOUDY    41  37  87 SW21G28   29.86F
KNOXVILLE *    MOSUNNY   43  37  81 SW18G26   29.87F
MARSHALLTOWN   CLOUDY    41  37  86 SW23G29   29.81F
PELLA *        CLOUDY    43  39  87 SW20G28   29.89F
PERRY *          N/A     46  41  81 SW22G28   29.84S
$$

IAZ004>006-015-016-023>025-035-036-291600-
   NORTH CENTRAL IOWA

CITY           SKY/WX    TMP DP  RH WIND       PRES   REMARKS
ALGONA *       SUNNY     54  43  66 W25G33    29.74S
CLARION *      SUNNY     46  43  87 SW21G31   29.76S
ESTHERVILLE    SUNNY     51  40  65 W28G38    29.72R
FORT DODGE *   MOSUNNY   48  39  71 SW16      29.79S
MASON CITY     MOSUNNY   44  39  82 SW20G28   29.73S
FOREST CITY *  SUNNY     45  39  81 SW15G24   29.71S
IOWA FALLS *     N/A     43  37  81 SW25      29.79S
$$

IAZ007>011-017>019-026>030-037>042-050>054-066-291600-
   NORTHEAST IOWA

CITY           SKY/WX    TMP DP  RH WIND       PRES   REMARKS
CEDAR RAPIDS   CLOUDY    35  33  92 S21G29    29.87R WCI  24
CHARLES CITY * CLOUDY    39  39 100 SW22G28   29.74F WCI  29
CLINTON *      CLOUDY    34  28  80 S17G25    29.93F WCI  23
DECORAH *      CLOUDY    34  32  93 S14G29    29.74F WCI  24
DUBUQUE        CLOUDY    32  28  85 S26G32    29.84F WCI  18
MONTICELLO *   CLOUDY    34  32  93 S18G24    29.88R WCI  23
OELWEIN *      CLOUDY    36  34  93 S23       29.80F WCI  24
WATERLOO       CLOUDY    39  37  92 SW21G29   29.80S WCI  29
$$

IAZ064-065-067-068-078-291600-
   EAST CENTRAL IOWA

CITY           SKY/WX    TMP DP  RH WIND       PRES   REMARKS
DAVENPORT      CLOUDY    34  27  75 S28G37    29.89F WCI  21
IOWA CITY      CLOUDY    36  32  85 S17       29.92R WCI  26
MT. PLEASANT * LGT RAIN  36  32  87 SW17      29.97R WCI  25
MUSCATINE *    CLOUDY    36  30  80 SW22G31   29.95R WCI  24
QUAD CITIES    CLOUDY    35  27  72 S22G32    29.89F WCI  23
$$

IAZ062-063-075>077-085>089-095>099-291600-
   SOUTHEAST IOWA

CITY           SKY/WX    TMP DP  RH WIND       PRES   REMARKS
BURLINGTON     MIX PCPN  35  31  85 S22       29.94F WCI  23
FAIRFIELD *    CLOUDY    37  32  81 S17G25    29.93F WCI  28
FORT MADISON * CLOUDY    36  32  87 S20G26    29.94F WCI  25
KEOKUK *       CLOUDY    37  32  81 S14G25    29.96F WCI  29
OSKALOOSA *      N/A     41  36  81 SW21      29.91F
CENTERVILLE *  SUNNY     39  37  93 SW16G26   29.95S WCI  30
OTTUMWA        PTSUNNY   40  36  86 SW20      29.91F WCI  30
WASHINGTON *   CLOUDY    37  36  93 S22G29    29.91R WCI  27
$$

ABBREVIATIONS USED IN REMARKS
   TC - TEMPERATURES IN CELSIUS
  WCI - WIND CHILL INDEX
   HX - HEAT INDEX
  VSB - VISIBILITY
$$



USA.gov is the U.S. government's official web portal to all federal, state and local government web resources and services.